Location: Henderson
(36.0400°N, 114.9810°W)
Time: 17:18:59
(UTC-07:00)

Daily predictions for brighter satellites

Satellite Brightness Start Highest point End
(mag) Time Altitude Azimuth Time Altitude Azimuth Time Altitude Azimuth
SL-24 R/B - RUBIN 2 4.4 20:09:17 10° SSW 20:14:32 79° WNW 20:20:34 10° NNE
Cosmos 494 Rocket 4.1 20:12:52 10° S 20:17:50 54° ESE 20:22:50 10° NNE
Cosmos 1975 4.2 20:14:34 10° NNW 20:18:20 40° W 20:22:05 10° SSW
Cosmos 2058 Rocket 3.8 20:15:21 10° NNE 20:19:23 35° E 20:23:22 10° SE
Cosmos 2233 Rocket 4.1 20:14:38 10° N 20:20:55 89° ENE 20:27:06 10° S
YAOGAN 11 4.3 20:17:40 10° SSE 20:21:57 57° ENE 20:26:12 10° N
GEOS 3 Rocket 3.7 20:20:36 10° SE 20:25:52 75° NE 20:31:06 10° NNW
Aureole 2 Rocket 3.2 20:22:11 10° S 20:25:58 39° ESE 20:29:27 10° NE
ALOS 2.3 20:25:24 10° SSE 20:30:04 86° WSW 20:34:46 10° NNW
Cosmos 1464 Rocket 4.3 20:25:11 10° N 20:31:05 47° E 20:37:00 10° SSE
Cosmos 2237 Rocket 4.0 20:26:02 10° SW 20:31:12 37° WNW 20:36:25 10° N
deb Chang Zheng 4 3.7 20:28:52 10° NNE 20:33:10 53° E 20:37:25 10° S
Cosmos 1606 Rocket 3.8 20:37:21 10° N 20:41:48 75° W 20:46:09 10° S
Cosmos 2278 Rocket 3.1 20:36:23 10° NNW 20:41:49 48° WSW 20:47:13 10° S
ATLAS CENTAUR R/B 4.2 20:38:10 10° WSW 20:42:26 28° NW 20:46:48 10° N
Cosmos 1331 Rocket 4.0 20:40:06 10° NNW 20:45:20 82° ENE 20:50:28 10° SSE
H-2A R/B 2.1 20:42:30 11° SSE 20:46:33 60° ENE 20:50:49 10° N
Atlas Centaur 2 3.3 20:42:44 10° SW 20:49:38 44° SSE 20:57:32 10° E
Cosmos 2034 Rocket 4.3 20:43:33 10° N 20:49:44 50° E 20:55:17 13° SSE
SeaSat 1 3.4 20:47:09 14° ESE 20:50:44 33° ENE 20:55:08 10° N
Cosmos 1666 3.0 20:48:44 10° N 20:52:33 51° E 20:55:25 16° SSE
Cosmos 2369 Rocket 4.2 20:51:57 10° NNE 20:54:53 14° NE 20:57:46 10° E
Meteor 1-15 Rocket 4.2 20:49:31 10° N 20:55:05 66° E 21:00:13 13° SSE
Cosmos 1626 Rocket 3.8 20:50:55 10° SSE 20:55:12 48° E 20:59:28 10° NNE
Cosmos 1302 Rocket 4.2 20:50:20 10° N 20:55:31 58° ENE 20:59:29 17° SE
Cosmos 1939 Rocket 3.1 20:53:33 16° SSE 20:56:46 56° ENE 21:00:51 10° N
SL-16 R/B 3.2 20:53:31 10° SW 20:58:58 50° WNW 21:04:29 10° N
CZ-4B R/B 4.3 20:55:05 10° NE 20:59:38 32° E 21:02:50 17° SSE
Cosmos 1743 4.3 21:03:04 10° NNW 21:06:35 34° W 21:10:02 10° SSW
Lacrosse 5 rocket 4.4 21:04:33 10° WNW 21:06:58 16° NW 21:09:29 10° N
OAO 3 Copernicus 4.3 21:02:04 10° W 21:07:05 66° SSW 21:10:17 22° ESE
COSMOS 2455 3.0 21:02:12 10° S 21:07:58 51° ESE 21:13:46 10° NE
Cosmos 2228 3.0 21:04:06 10° N 21:08:32 88° E 21:12:02 16° S
APEX 3.7 21:10:19 10° NNW 21:14:35 88° ENE 21:18:07 22° SSE
BREEZE-M DEB (TANK) 1.5 21:16:47 10° NW 21:19:05 89° SSW 21:19:20 65° SE
Cosmos 1515 4.4 21:18:53 32° ESE 21:19:43 36° E 21:23:17 10° NNE
ERS-1 Rocket 3.8 21:17:18 10° S 21:22:06 47° W 21:26:57 10° NNW
ATLAS 3B R/B 3.4 21:15:18 10° S 21:22:15 38° ESE 21:29:08 10° NE
Abrixas rocket 2.2 21:20:01 10° NW 21:23:26 85° NE 21:24:24 45° ESE
Envisat 3.0 21:22:53 21° SSE 21:26:20 87° WSW 21:31:27 10° NNW
Cosmos 1603 3.8 21:22:15 10° SSW 21:27:52 77° WNW 21:33:29 10° NNE
Cosmos 1346 Rocket 4.2 21:31:31 22° ENE 21:31:31 22° ENE 21:34:01 10° NE
Lacrosse 4 Rocket 3.2 21:35:28 17° ENE 21:35:28 17° ENE 21:36:52 10° NE
USA 234 3.6 21:33:09 23° ESE 21:37:14 56° NE 21:43:37 10° NW
YAOGAN 6 2.8 21:36:49 47° ESE 21:37:24 53° ENE 21:41:03 10° N
ISS -3.2 21:35:25 10° SW 21:38:39 72° NW 21:41:55 10° NE
PSLV R/B 4.1 21:36:29 10° W 21:39:58 52° NNW 21:42:18 19° ENE
Cosmos 1758 Rocket 4.4 21:47:14 32° E 21:47:14 32° E 21:50:53 10° NNE
USA 81 4.2 21:42:01 10° N 21:47:13 56° E 21:48:44 41° SE
Cosmos 1943 3.1 21:49:01 26° S 21:52:18 69° ESE 21:57:57 10° NNE
CZ-4 R/B 3.8 21:47:43 10° NNE 21:52:44 74° ESE 21:54:39 38° S
Cosmos 1461 3.3 21:50:14 10° NW 21:54:22 52° WSW 21:55:10 44° SSW
Milstar 3 Cent rocket 3.8 21:52:04 10° WSW 21:56:11 18° SSW 21:56:46 18° SSW
SPOT 5 3.5 21:54:49 26° SSW 21:56:53 43° W 22:01:02 10° NNW
MetOp-A 4.4 21:58:01 31° S 22:00:31 63° WSW 22:05:50 10° NNW
Landsat 7 4.2 22:02:10 43° E 22:02:39 44° ENE 22:07:10 10° N
Cosmos 1943 Rocket 3.8 21:59:41 10° N 22:03:39 20° ENE 22:05:02 18° ENE
SL-23 DEB 4.4 21:57:27 10° SW 22:04:23 60° SE 22:06:43 26° ENE
Cosmos 1825 Rocket 3.5 22:03:51 53° SSW 22:04:52 84° W 22:09:20 10° N
SL-08 RB Rocket 3.6 22:05:28 62° ESE 22:06:00 69° ENE 22:10:30 10° N
Cosmos 1992 Rocket 3.9 22:02:03 10° NNW 22:07:18 80° ENE 22:08:21 57° SE
H-2A R/B 2.5 22:09:27 39° E 22:09:52 40° ENE 22:14:32 10° N
Cosmos 1766 4.5 22:06:56 10° NNE 22:09:49 31° NE 22:09:49 31° NE
Terra 2.3 22:18:27 45° ENE 22:18:28 45° ENE 22:22:59 10° N
SPOT 1/Viking Rocket 3.9 22:17:00 42° SSW 22:18:29 59° W 22:23:34 10° NNW
Geosat 4.1 22:17:29 10° NNE 22:22:31 75° WNW 22:24:33 36° SW
Cosmos 1190 Rocket 4.1 22:20:42 38° SSW 22:22:47 73° WNW 22:28:06 10° NNE
CZ-4C R/B 3.5 22:24:36 81° WNW 22:24:36 81° WNW 22:28:36 10° NNW
SeaSat 1 3.8 22:26:57 25° SW 22:28:13 28° WSW 22:32:27 10° NW
DMSP B5D2-2 4.0 22:29:06 10° NNE 22:34:23 71° ESE 22:34:23 71° ESE
ARGOS 3.6 22:33:35 44° SW 22:34:47 53° W 22:40:07 10° NNW
Cosmos 1634 Rocket 4.3 22:30:20 10° NNW 22:36:23 59° W 22:38:19 41° SSW
Atlas Centaur 2 3.0 22:31:15 10° WSW 22:39:09 59° S 22:40:54 51° SE
Cosmos 676 Rocket 3.9 22:38:47 77° SSW 22:39:11 88° WNW 22:44:33 10° NNE
Cosmos 2369 Rocket 2.0 22:33:54 10° NNW 22:39:34 79° WSW 22:40:04 72° SSW
Cosmos 1953 3.8 22:43:31 10° N 22:45:51 31° NNE 22:45:51 31° NNE
Cosmos 1140 Rocket 4.2 22:49:15 41° ENE 22:49:15 41° ENE 22:53:02 10° NNE
IGS 5A 4.4 22:56:53 47° NNW 22:56:53 47° NNW 22:59:55 10° NNW
Cosmos 2279 Rocket 4.1 22:54:40 10° NNW 23:00:51 67° W 23:01:43 59° SW
COSMOS 2406 3.5 23:03:10 55° ENE 23:03:10 55° ENE 23:07:50 10° NNE
Cosmos 2263 4.2 22:57:59 10° NNW 23:03:26 69° W 23:03:26 69° W
Lacrosse 4 Rocket 3.4 23:11:43 23° WNW 23:12:13 24° WNW 23:15:34 10° N
Cosmos 1932 4.5 23:11:30 65° WSW 23:12:19 75° WNW 23:18:34 10° NNE
ATLAS 3B R/B 3.8 23:05:35 10° WSW 23:12:54 46° NW 23:20:06 10° NNE
Cosmos-2242 4.1 23:08:59 10° NNW 23:12:08 43° NW 23:12:08 43° NW
ISS 0.2 23:14:19 10° NW 23:15:35 12° NNW 23:16:53 10° N
USA 234 4.0 23:20:29 37° WSW 23:20:29 37° WSW 23:26:19 10° WNW
Cosmos 1607 4.0 23:24:11 66° ENE 23:24:11 66° ENE 23:29:34 10° NNE
Cosmos 1943 Rocket 2.9 23:42:19 10° NNW 23:46:33 45° WNW 23:46:33 45° WNW
USA 238 DEB 4.2 23:45:41 42° WSW 23:47:49 58° NW 23:54:48 10° NNE
USA 238 4.2 23:45:51 43° WSW 23:47:55 58° NW 23:54:54 10° NNE
H-2A R/B 4.0 23:50:05 19° W 23:50:05 19° W 23:52:57 10° NW
Meteor 2-5 Rocket 4.1 23:53:37 66° NNW 23:53:37 66° NNW 23:58:38 10° N
Terra 4.1 23:57:19 15° W 23:57:19 15° W 23:59:16 10° NW
